Details for Air Canada at CYYC




Go Back


Latest METAR
Local Time

CYYC 181300Z 16007KT 2SM -DZ BR OVC005 03/02 A3011 RMK ST8 CIG VRB 4-6 SLP225
18/09/2018, 07:35:40

Description
Results
Air Canada Logo
Number of Pilots based at CYYC
0 Pilots Based here
Number of Air Canada Flights Departed from CYYC
0 Flights Departed
Number of Air Canada Flights Arrived at CYYC
0 Flights Arrived
Number of Air Canada Schedules Departing from CYYC
40 Schedules
Number of Air Canada Schedules Arriving at CYYC
39 Schedules
Number of Air Canada Schedules Departing from CYYC availible today
34 Schedules Today
Number of Air Canada Schedules Arriving at CYYC availible today
33 Schedules Today
Average Landing Rate at CYYC
-189 fpm
Air Canada Average Landing Rate at CYYC
0 fpm
Total Fuel Purchased at CYYC by Air Canada
0.00 kgs / 0.00 lbs

Pilots Based at CYYC


Pilot ID
Pilot Name
Pilot Rank
No. of Flights
No. of Flying Hours
There are no pilots assigned to this hub!   Will you be the first?
Content